contact:dominique.lefevre@mio.osupytheas.fr, maurice.libes@osupytheas.fr, didier.mallarino@osupytheas.fr
Project:EMSO http://www.emso-fr.org/EMSO-France
Depth: 2436.0 m
Title:EMSO Ligure Ouest : Data MII capteur MICROCAT
DateTime_Computer,Latitude,Longitude,Temperature,Conductivity,Pressure,DateTime_Instrument
DateTime_Computer,Latitude,Longitude,degC,S m-1,dbar,DateTime_Instrument
2023-12-11T00:01:09Z,42.805,6.029,13.3060,4.60178,2470.661,2023-12-11T02:03:38Z
2023-12-11T00:04:12Z,42.805,6.029,13.3076,4.60178,2470.684,2023-12-11T02:06:41Z
2023-12-11T00:07:15Z,42.805,6.029,13.3063,4.60188,2470.614,2023-12-11T02:09:44Z
2023-12-11T00:10:18Z,42.805,6.029,13.3051,4.60170,2470.646,2023-12-11T02:12:48Z
2023-12-11T00:13:21Z,42.805,6.029,13.3063,4.60155,2470.646,2023-12-11T02:15:51Z
2023-12-11T00:16:24Z,42.805,6.029,13.3073,4.60183,2470.624,2023-12-11T02:18:54Z
2023-12-11T00:19:27Z,42.805,6.029,13.3050,4.60165,2470.646,2023-12-11T02:21:57Z
2023-12-11T00:22:30Z,42.805,6.029,13.3070,4.60185,2470.661,2023-12-11T02:25:00Z
2023-12-11T00:25:34Z,42.805,6.029,13.3067,4.60183,2470.684,2023-12-11T02:28:03Z
2023-12-11T00:28:37Z,42.805,6.029,13.3076,4.60182,2470.646,2023-12-11T02:31:06Z
2023-12-11T00:31:40Z,42.805,6.029,13.3054,4.60175,2470.633,2023-12-11T02:34:09Z
2023-12-11T00:34:43Z,42.805,6.029,13.3068,4.60186,2470.646,2023-12-11T02:37:12Z
2023-12-11T00:37:46Z,42.805,6.029,13.3062,4.60171,2470.661,2023-12-11T02:40:15Z
2023-12-11T00:40:49Z,42.805,6.029,13.3049,4.60156,2470.661,2023-12-11T02:43:18Z
2023-12-11T00:43:52Z,42.805,6.029,13.3063,4.60183,2470.693,2023-12-11T02:46:21Z
2023-12-11T00:46:55Z,42.805,6.029,13.3066,4.60155,2470.661,2023-12-11T02:49:24Z
2023-12-11T00:49:58Z,42.805,6.029,13.3074,4.60181,2470.67,2023-12-11T02:52:28Z
2023-12-11T00:53:01Z,42.805,6.029,13.3070,4.60173,2470.646,2023-12-11T02:55:31Z
2023-12-11T00:56:04Z,42.805,6.029,13.3056,4.60180,2470.684,2023-12-11T02:58:34Z
2023-12-11T00:59:07Z,42.805,6.029,13.3082,4.60210,2470.684,2023-12-11T03:01:37Z
2023-12-11T01:02:10Z,42.805,6.029,13.3073,4.60170,2470.67,2023-12-11T03:04:40Z
2023-12-11T01:05:14Z,42.805,6.029,13.3054,4.60170,2470.693,2023-12-11T03:07:43Z
2023-12-11T01:08:17Z,42.805,6.029,13.3085,4.60203,2470.707,2023-12-11T03:10:46Z
2023-12-11T01:11:20Z,42.805,6.029,13.3076,4.60167,2470.646,2023-12-11T03:13:49Z
2023-12-11T01:14:23Z,42.805,6.029,13.3069,4.60173,2470.661,2023-12-11T03:16:52Z
2023-12-11T01:17:26Z,42.805,6.029,13.3084,4.60197,2470.67,2023-12-11T03:19:55Z
2023-12-11T01:20:29Z,42.805,6.029,13.3093,4.60218,2470.646,2023-12-11T03:22:58Z
2023-12-11T01:23:32Z,42.805,6.029,13.3067,4.60210,2470.707,2023-12-11T03:26:01Z
2023-12-11T01:26:35Z,42.805,6.029,13.3088,4.60192,2470.707,2023-12-11T03:29:05Z
2023-12-11T01:29:38Z,42.805,6.029,13.3065,4.60190,2470.684,2023-12-11T03:32:08Z
2023-12-11T01:32:41Z,42.805,6.029,13.3089,4.60175,2470.693,2023-12-11T03:35:11Z
2023-12-11T01:35:44Z,42.805,6.029,13.3057,4.60190,2470.67,2023-12-11T03:38:14Z
2023-12-11T01:38:47Z,42.805,6.029,13.3062,4.60190,2470.67,2023-12-11T03:41:17Z
2023-12-11T01:41:51Z,42.805,6.029,13.3074,4.60201,2470.707,2023-12-11T03:44:20Z
2023-12-11T01:44:54Z,42.805,6.029,13.3086,4.60166,2470.684,2023-12-11T03:47:23Z
2023-12-11T01:47:57Z,42.805,6.029,13.3103,4.60155,2470.73,2023-12-11T03:50:26Z
2023-12-11T01:51:00Z,42.805,6.029,13.3073,4.60150,2470.693,2023-12-11T03:53:29Z
2023-12-11T01:54:03Z,42.805,6.029,13.3075,4.60176,2470.717,2023-12-11T03:56:32Z
2023-12-11T01:57:06Z,42.805,6.029,13.3113,4.60200,2470.693,2023-12-11T03:59:35Z
2023-12-11T02:00:09Z,42.805,6.029,13.3076,4.60187,2470.73,2023-12-11T04:02:38Z
2023-12-11T02:03:12Z,42.805,6.029,13.3080,4.60183,2470.717,2023-12-11T04:05:41Z
2023-12-11T02:06:15Z,42.805,6.029,13.3046,4.60171,2470.717,2023-12-11T04:08:45Z
2023-12-11T02:09:18Z,42.805,6.029,13.3074,4.60146,2470.717,2023-12-11T04:11:48Z
2023-12-11T02:12:21Z,42.805,6.029,13.3085,4.60168,2470.717,2023-12-11T04:14:51Z
2023-12-11T02:15:24Z,42.805,6.029,13.3092,4.60216,2470.717,2023-12-11T04:17:54Z
2023-12-11T02:18:27Z,42.805,6.029,13.3099,4.60185,2470.717,2023-12-11T04:20:57Z
2023-12-11T02:21:31Z,42.805,6.029,13.3091,4.60276,2470.74,2023-12-11T04:24:00Z
2023-12-11T02:24:34Z,42.805,6.029,13.3101,4.60224,2470.717,2023-12-11T04:27:03Z
2023-12-11T02:27:37Z,42.805,6.029,13.3065,4.60230,2470.717,2023-12-11T04:30:06Z
2023-12-11T02:30:40Z,42.805,6.029,13.3089,4.60193,2470.717,2023-12-11T04:33:09Z
2023-12-11T02:33:43Z,42.805,6.029,13.3092,4.60130,2470.74,2023-12-11T04:36:12Z
2023-12-11T02:36:46Z,42.805,6.029,13.3091,4.60155,2470.74,2023-12-11T04:39:15Z
2023-12-11T02:39:49Z,42.805,6.029,13.3067,4.60207,2470.754,2023-12-11T04:42:18Z
2023-12-11T02:42:52Z,42.805,6.029,13.3085,4.60150,2470.763,2023-12-11T04:45:22Z
2023-12-11T02:45:55Z,42.805,6.029,13.3070,4.60170,2470.777,2023-12-11T04:48:25Z
2023-12-11T02:48:58Z,42.805,6.029,13.3083,4.60155,2470.74,2023-12-11T04:51:28Z
2023-12-11T02:52:01Z,42.805,6.029,13.3072,4.60161,2470.74,2023-12-11T04:54:31Z
2023-12-11T02:55:04Z,42.805,6.029,13.3072,4.60188,2470.754,2023-12-11T04:57:34Z
2023-12-11T02:58:08Z,42.805,6.029,13.3084,4.60137,2470.754,2023-12-11T05:00:37Z
2023-12-11T03:01:11Z,42.805,6.029,13.3084,4.60142,2470.74,2023-12-11T05:03:40Z
2023-12-11T03:04:14Z,42.805,6.029,13.3084,4.60144,2470.768,2023-12-11T05:06:43Z
2023-12-11T03:07:17Z,42.805,6.029,13.3081,4.60183,2470.763,2023-12-11T05:09:46Z
2023-12-11T03:10:20Z,42.805,6.029,13.3073,4.60157,2470.763,2023-12-11T05:12:49Z
2023-12-11T03:13:23Z,42.805,6.029,13.3073,4.60131,2470.763,2023-12-11T05:15:52Z
2023-12-11T03:16:26Z,42.805,6.029,13.3087,4.60133,2470.754,2023-12-11T05:18:55Z
2023-12-11T03:19:29Z,42.805,6.029,13.3072,4.60155,2470.787,2023-12-11T05:21:58Z
2023-12-11T03:22:32Z,42.805,6.029,13.3086,4.60128,2470.787,2023-12-11T05:25:02Z
2023-12-11T03:25:35Z,42.805,6.029,13.3082,4.60135,2470.824,2023-12-11T05:28:05Z
2023-12-11T03:28:38Z,42.805,6.029,13.3067,4.60162,2470.763,2023-12-11T05:31:08Z
2023-12-11T03:31:41Z,42.805,6.029,13.3083,4.60156,2470.8,2023-12-11T05:34:11Z
2023-12-11T03:34:44Z,42.805,6.029,13.3082,4.60153,2470.74,2023-12-11T05:37:14Z
2023-12-11T03:37:48Z,42.805,6.029,13.3065,4.60139,2470.824,2023-12-11T05:40:17Z
2023-12-11T03:40:51Z,42.805,6.029,13.3099,4.60140,2470.81,2023-12-11T05:43:20Z
2023-12-11T03:43:54Z,42.805,6.029,13.3068,4.60135,2470.8,2023-12-11T05:46:23Z
2023-12-11T03:46:57Z,42.805,6.029,13.3072,4.60139,2470.763,2023-12-11T05:49:26Z
2023-12-11T03:50:00Z,42.805,6.029,13.3076,4.60150,2470.81,2023-12-11T05:52:29Z
2023-12-11T03:53:03Z,42.805,6.029,13.3076,4.60138,2470.824,2023-12-11T05:55:32Z
2023-12-11T03:56:06Z,42.805,6.029,13.3076,4.60149,2470.796,2023-12-11T05:58:35Z
2023-12-11T03:59:09Z,42.805,6.029,13.3068,4.60155,2470.833,2023-12-11T06:01:39Z
2023-12-11T04:02:12Z,42.805,6.029,13.3085,4.60150,2470.847,2023-12-11T06:04:42Z
2023-12-11T04:05:15Z,42.805,6.029,13.3070,4.60195,2470.833,2023-12-11T06:07:45Z
2023-12-11T04:08:18Z,42.805,6.029,13.3090,4.60172,2470.833,2023-12-11T06:10:48Z
2023-12-11T04:11:21Z,42.805,6.029,13.3073,4.60173,2470.847,2023-12-11T06:13:51Z
2023-12-11T04:14:25Z,42.805,6.029,13.3084,4.60183,2470.824,2023-12-11T06:16:54Z
2023-12-11T04:17:28Z,42.805,6.029,13.3081,4.60149,2470.81,2023-12-11T06:19:57Z
2023-12-11T04:20:31Z,42.805,6.029,13.3103,4.60144,2470.81,2023-12-11T06:23:00Z
2023-12-11T04:23:34Z,42.805,6.029,13.3075,4.60172,2470.833,2023-12-11T06:26:03Z
2023-12-11T04:26:37Z,42.805,6.029,13.3102,4.60153,2470.88,2023-12-11T06:29:06Z
2023-12-11T04:29:40Z,42.805,6.029,13.3085,4.60153,2470.833,2023-12-11T06:32:09Z
2023-12-11T04:32:43Z,42.805,6.029,13.3074,4.60158,2470.824,2023-12-11T06:35:12Z
2023-12-11T04:35:46Z,42.805,6.029,13.3078,4.60157,2470.833,2023-12-11T06:38:16Z
2023-12-11T04:38:49Z,42.805,6.029,13.3089,4.60157,2470.833,2023-12-11T06:41:19Z
2023-12-11T04:41:52Z,42.805,6.029,13.3098,4.60165,2470.857,2023-12-11T06:44:22Z
2023-12-11T04:44:55Z,42.805,6.029,13.3078,4.60194,2470.871,2023-12-11T06:47:25Z
2023-12-11T04:47:58Z,42.805,6.029,13.3082,4.60175,2470.857,2023-12-11T06:50:28Z
2023-12-11T04:51:02Z,42.805,6.029,13.3086,4.60162,2470.871,2023-12-11T06:53:31Z
2023-12-11T04:54:05Z,42.805,6.029,13.3092,4.60149,2470.871,2023-12-11T06:56:34Z
2023-12-11T04:57:08Z,42.805,6.029,13.3058,4.60187,2470.88,2023-12-11T06:59:37Z
2023-12-11T05:00:11Z,42.805,6.029,13.3089,4.60156,2470.857,2023-12-11T07:02:40Z
2023-12-11T05:03:14Z,42.805,6.029,13.3068,4.60155,2470.857,2023-12-11T07:05:43Z
2023-12-11T05:06:17Z,42.805,6.029,13.3073,4.60144,2470.908,2023-12-11T07:08:46Z
2023-12-11T05:09:20Z,42.805,6.029,13.3098,4.60146,2470.894,2023-12-11T07:11:49Z
2023-12-11T05:12:23Z,42.805,6.029,13.3101,4.60142,2470.904,2023-12-11T07:14:52Z
2023-12-11T05:15:26Z,42.805,6.029,13.3096,4.60156,2470.894,2023-12-11T07:17:56Z
2023-12-11T05:18:29Z,42.805,6.029,13.3058,4.60167,2470.894,2023-12-11T07:20:59Z
2023-12-11T05:21:32Z,42.805,6.029,13.3067,4.60145,2470.88,2023-12-11T07:24:02Z
2023-12-11T05:24:35Z,42.805,6.029,13.3085,4.60190,2470.894,2023-12-11T07:27:05Z
2023-12-11T05:27:38Z,42.805,6.029,13.3093,4.60172,2470.904,2023-12-11T07:30:08Z
2023-12-11T05:30:42Z,42.805,6.029,13.3091,4.60167,2470.833,2023-12-11T07:33:11Z
2023-12-11T05:33:45Z,42.805,6.029,13.3093,4.60178,2470.894,2023-12-11T07:36:14Z
2023-12-11T05:36:48Z,42.805,6.029,13.3113,4.60144,2470.88,2023-12-11T07:39:17Z
2023-12-11T05:39:51Z,42.805,6.029,13.3113,4.60150,2470.917,2023-12-11T07:42:20Z
2023-12-11T05:42:54Z,42.805,6.029,13.3060,4.60149,2470.88,2023-12-11T07:45:23Z
2023-12-11T05:45:57Z,42.805,6.029,13.3064,4.60139,2470.88,2023-12-11T07:48:26Z
2023-12-11T05:49:00Z,42.805,6.029,13.3101,4.60150,2470.88,2023-12-11T07:51:29Z
2023-12-11T05:52:03Z,42.805,6.029,13.3063,4.60155,2470.871,2023-12-11T07:54:33Z
2023-12-11T05:55:06Z,42.805,6.029,13.3071,4.60162,2470.904,2023-12-11T07:57:36Z
2023-12-11T05:58:09Z,42.805,6.029,13.3067,4.60163,2470.894,2023-12-11T08:00:39Z
2023-12-11T06:01:12Z,42.805,6.029,13.3090,4.60168,2470.88,2023-12-11T08:03:42Z
2023-12-11T06:04:15Z,42.805,6.029,13.3091,4.60181,2470.88,2023-12-11T08:06:45Z
2023-12-11T06:07:19Z,42.805,6.029,13.3085,4.60154,2470.894,2023-12-11T08:09:48Z
2023-12-11T06:10:22Z,42.805,6.029,13.3085,4.60183,2470.904,2023-12-11T08:12:51Z
2023-12-11T06:13:25Z,42.805,6.029,13.3093,4.60158,2470.871,2023-12-11T08:15:54Z
2023-12-11T06:16:28Z,42.805,6.029,13.3089,4.60162,2470.88,2023-12-11T08:18:57Z
2023-12-11T06:19:31Z,42.805,6.029,13.3085,4.60164,2470.917,2023-12-11T08:22:00Z
2023-12-11T06:22:34Z,42.805,6.029,13.3093,4.60151,2470.904,2023-12-11T08:25:03Z
2023-12-11T06:25:37Z,42.805,6.029,13.3094,4.60144,2470.904,2023-12-11T08:28:06Z
2023-12-11T06:28:40Z,42.805,6.029,13.3083,4.60152,2470.904,2023-12-11T08:31:10Z
2023-12-11T06:31:43Z,42.805,6.029,13.3081,4.60135,2470.88,2023-12-11T08:34:13Z
2023-12-11T06:34:46Z,42.805,6.029,13.3090,4.60130,2470.88,2023-12-11T08:37:16Z
2023-12-11T06:37:49Z,42.805,6.029,13.3119,4.60136,2470.904,2023-12-11T08:40:19Z
2023-12-11T06:40:52Z,42.805,6.029,13.3092,4.60163,2470.894,2023-12-11T08:43:22Z
2023-12-11T06:43:56Z,42.805,6.029,13.3091,4.60186,2470.894,2023-12-11T08:46:25Z
2023-12-11T06:46:59Z,42.805,6.029,13.3091,4.60200,2470.917,2023-12-11T08:49:28Z
2023-12-11T06:50:02Z,42.805,6.029,13.3091,4.60160,2470.894,2023-12-11T08:52:31Z
2023-12-11T06:53:05Z,42.805,6.029,13.3092,4.60160,2470.904,2023-12-11T08:55:34Z
2023-12-11T06:56:08Z,42.805,6.029,13.3111,4.60147,2470.894,2023-12-11T08:58:37Z
2023-12-11T06:59:11Z,42.805,6.029,13.3085,4.60175,2470.917,2023-12-11T09:01:40Z
2023-12-11T07:02:14Z,42.805,6.029,13.3089,4.60199,2470.88,2023-12-11T09:04:43Z
2023-12-11T07:05:17Z,42.805,6.029,13.3109,4.60193,2470.917,2023-12-11T09:07:47Z
2023-12-11T07:08:20Z,42.805,6.029,13.3108,4.60235,2470.894,2023-12-11T09:10:50Z
2023-12-11T07:11:23Z,42.805,6.029,13.3096,4.60145,2470.917,2023-12-11T09:13:53Z
2023-12-11T07:14:26Z,42.805,6.029,13.3104,4.60151,2470.927,2023-12-11T09:16:56Z
2023-12-11T07:17:29Z,42.805,6.029,13.3099,4.60161,2470.894,2023-12-11T09:19:59Z
2023-12-11T07:20:33Z,42.805,6.029,13.3109,4.60191,2470.894,2023-12-11T09:23:02Z
2023-12-11T07:23:36Z,42.805,6.029,13.3104,4.60161,2470.871,2023-12-11T09:26:05Z
2023-12-11T07:26:39Z,42.805,6.029,13.3078,4.60209,2470.857,2023-12-11T09:29:08Z
2023-12-11T07:29:42Z,42.805,6.029,13.3121,4.60168,2470.88,2023-12-11T09:32:11Z
2023-12-11T07:32:45Z,42.805,6.029,13.3128,4.60185,2470.88,2023-12-11T09:35:14Z
2023-12-11T07:35:48Z,42.805,6.029,13.3133,4.60168,2470.81,2023-12-11T09:38:17Z
2023-12-11T07:38:51Z,42.805,6.029,13.3103,4.60202,2470.88,2023-12-11T09:41:20Z
2023-12-11T07:41:54Z,42.805,6.029,13.3089,4.60202,2470.894,2023-12-11T09:44:23Z
2023-12-11T07:44:57Z,42.805,6.029,13.3070,4.60203,2470.904,2023-12-11T09:47:27Z
2023-12-11T07:48:00Z,42.805,6.029,13.3098,4.60199,2470.904,2023-12-11T09:50:30Z
2023-12-11T07:51:03Z,42.805,6.029,13.3098,4.60199,2470.904,2023-12-11T09:53:33Z
2023-12-11T07:54:06Z,42.805,6.029,13.3080,4.60208,2470.894,2023-12-11T09:56:36Z
2023-12-11T07:57:09Z,42.805,6.029,13.3076,4.60218,2470.88,2023-12-11T09:59:39Z
2023-12-11T08:00:13Z,42.805,6.029,13.3073,4.60204,2470.894,2023-12-11T10:02:42Z
2023-12-11T08:03:16Z,42.805,6.029,13.3078,4.60189,2470.904,2023-12-11T10:05:45Z
2023-12-11T08:06:19Z,42.805,6.029,13.3071,4.60202,2470.904,2023-12-11T10:08:48Z
2023-12-11T08:09:22Z,42.805,6.029,13.3091,4.60192,2470.917,2023-12-11T10:11:51Z
2023-12-11T08:12:25Z,42.805,6.029,13.3062,4.60189,2470.88,2023-12-11T10:14:54Z
2023-12-11T08:15:28Z,42.805,6.029,13.3084,4.60193,2470.904,2023-12-11T10:17:57Z
2023-12-11T08:18:31Z,42.805,6.029,13.3063,4.60191,2470.917,2023-12-11T10:21:00Z
2023-12-11T08:21:34Z,42.805,6.029,13.3081,4.60215,2470.904,2023-12-11T10:24:04Z
2023-12-11T08:24:37Z,42.805,6.029,13.3075,4.60175,2470.894,2023-12-11T10:27:07Z
2023-12-11T08:27:40Z,42.805,6.029,13.3076,4.60175,2470.871,2023-12-11T10:30:10Z
2023-12-11T08:30:43Z,42.805,6.029,13.3073,4.60190,2470.88,2023-12-11T10:33:13Z
2023-12-11T08:33:46Z,42.805,6.029,13.3057,4.60201,2470.857,2023-12-11T10:36:16Z
2023-12-11T08:36:50Z,42.805,6.029,13.3051,4.60217,2470.857,2023-12-11T10:39:19Z
2023-12-11T08:39:53Z,42.805,6.029,13.3087,4.60210,2470.88,2023-12-11T10:42:22Z
2023-12-11T08:42:56Z,42.805,6.029,13.3075,4.60205,2470.894,2023-12-11T10:45:25Z
2023-12-11T08:45:59Z,42.805,6.029,13.3080,4.60188,2470.857,2023-12-11T10:48:28Z
2023-12-11T08:49:02Z,42.805,6.029,13.3074,4.60192,2470.88,2023-12-11T10:51:31Z
2023-12-11T08:52:05Z,42.805,6.029,13.3080,4.60201,2470.857,2023-12-11T10:54:34Z
2023-12-11T08:55:08Z,42.805,6.029,13.3072,4.60184,2470.88,2023-12-11T10:57:38Z
2023-12-11T08:58:11Z,42.805,6.029,13.3073,4.60198,2470.88,2023-12-11T11:00:41Z
2023-12-11T09:01:14Z,42.805,6.029,13.3063,4.60224,2470.88,2023-12-11T11:03:44Z
2023-12-11T09:04:17Z,42.805,6.029,13.3070,4.60216,2470.857,2023-12-11T11:06:47Z
2023-12-11T09:07:20Z,42.805,6.029,13.3057,4.60192,2470.88,2023-12-11T11:09:50Z
2023-12-11T09:10:24Z,42.805,6.029,13.3061,4.60204,2470.857,2023-12-11T11:12:53Z
2023-12-11T09:13:27Z,42.805,6.029,13.3056,4.60175,2470.904,2023-12-11T11:15:56Z
2023-12-11T09:16:30Z,42.805,6.029,13.3070,4.60172,2470.857,2023-12-11T11:18:59Z
2023-12-11T09:19:33Z,42.805,6.029,13.3066,4.60180,2470.857,2023-12-11T11:22:02Z
2023-12-11T09:22:36Z,42.805,6.029,13.3061,4.60185,2470.857,2023-12-11T11:25:05Z
2023-12-11T09:25:39Z,42.805,6.029,13.3063,4.60187,2470.88,2023-12-11T11:28:08Z
2023-12-11T09:28:42Z,42.805,6.029,13.3064,4.60185,2470.894,2023-12-11T11:31:11Z
2023-12-11T09:31:45Z,42.805,6.029,13.3056,4.60182,2470.833,2023-12-11T11:34:15Z
2023-12-11T09:34:48Z,42.805,6.029,13.3058,4.60180,2470.82,2023-12-11T11:37:18Z
2023-12-11T09:37:51Z,42.805,6.029,13.3071,4.60174,2470.833,2023-12-11T11:40:21Z
2023-12-11T09:40:54Z,42.805,6.029,13.3061,4.60179,2470.871,2023-12-11T11:43:24Z
2023-12-11T09:43:57Z,42.805,6.029,13.3069,4.60172,2470.857,2023-12-11T11:46:27Z
2023-12-11T09:47:01Z,42.805,6.029,13.3058,4.60165,2470.857,2023-12-11T11:49:30Z
2023-12-11T09:50:04Z,42.805,6.029,13.3048,4.60160,2470.88,2023-12-11T11:52:33Z
2023-12-11T09:53:07Z,42.805,6.029,13.3052,4.60160,2470.857,2023-12-11T11:55:36Z
2023-12-11T09:56:10Z,42.805,6.029,13.3061,4.60177,2470.833,2023-12-11T11:58:39Z
2023-12-11T09:59:13Z,42.805,6.029,13.3046,4.60155,2470.787,2023-12-11T12:01:42Z
2023-12-11T10:02:16Z,42.805,6.029,13.3050,4.60137,2470.847,2023-12-11T12:04:45Z
2023-12-11T10:05:19Z,42.805,6.029,13.3048,4.60131,2470.857,2023-12-11T12:07:48Z
2023-12-11T10:08:22Z,42.805,6.029,13.3048,4.60143,2470.847,2023-12-11T12:10:52Z
2023-12-11T10:11:25Z,42.805,6.029,13.3043,4.60155,2470.81,2023-12-11T12:13:55Z
2023-12-11T10:14:28Z,42.805,6.029,13.3053,4.60149,2470.833,2023-12-11T12:16:58Z
2023-12-11T10:17:31Z,42.805,6.029,13.3054,4.60152,2470.824,2023-12-11T12:20:01Z
2023-12-11T10:20:35Z,42.805,6.029,13.3054,4.60167,2470.833,2023-12-11T12:23:04Z
2023-12-11T10:23:38Z,42.805,6.029,13.3044,4.60135,2470.81,2023-12-11T12:26:07Z
2023-12-11T10:26:41Z,42.805,6.029,13.3047,4.60146,2470.787,2023-12-11T12:29:10Z
2023-12-11T10:29:44Z,42.805,6.029,13.3054,4.60142,2470.81,2023-12-11T12:32:13Z
2023-12-11T10:32:47Z,42.805,6.029,13.3053,4.60161,2470.81,2023-12-11T12:35:16Z
2023-12-11T10:35:50Z,42.805,6.029,13.3051,4.60147,2470.81,2023-12-11T12:38:19Z
2023-12-11T10:38:53Z,42.805,6.029,13.3053,4.60153,2470.787,2023-12-11T12:41:22Z
2023-12-11T10:41:56Z,42.805,6.029,13.3045,4.60144,2470.81,2023-12-11T12:44:26Z
2023-12-11T10:44:59Z,42.805,6.029,13.3050,4.60142,2470.833,2023-12-11T12:47:29Z
2023-12-11T10:48:02Z,42.805,6.029,13.3048,4.60147,2470.777,2023-12-11T12:50:32Z
2023-12-11T10:51:05Z,42.805,6.029,13.3054,4.60145,2470.81,2023-12-11T12:53:35Z
2023-12-11T10:54:08Z,42.805,6.029,13.3054,4.60137,2470.8,2023-12-11T12:56:38Z
2023-12-11T10:57:12Z,42.805,6.029,13.3046,4.60141,2470.8,2023-12-11T12:59:41Z
2023-12-11T11:00:15Z,42.805,6.029,13.3058,4.60150,2470.787,2023-12-11T13:02:44Z
2023-12-11T11:03:18Z,42.805,6.029,13.3055,4.60162,2470.787,2023-12-11T13:05:47Z
2023-12-11T11:06:21Z,42.805,6.029,13.3052,4.60144,2470.81,2023-12-11T13:08:50Z
2023-12-11T11:09:24Z,42.805,6.029,13.3050,4.60149,2470.8,2023-12-11T13:11:53Z
2023-12-11T11:12:27Z,42.805,6.029,13.3046,4.60141,2470.81,2023-12-11T13:14:56Z
2023-12-11T11:15:30Z,42.805,6.029,13.3046,4.60130,2470.787,2023-12-11T13:18:00Z
2023-12-11T11:18:33Z,42.805,6.029,13.3052,4.60139,2470.787,2023-12-11T13:21:03Z
2023-12-11T11:21:36Z,42.805,6.029,13.3056,4.60165,2470.8,2023-12-11T13:24:06Z
2023-12-11T11:24:39Z,42.805,6.029,13.3042,4.60137,2470.787,2023-12-11T13:27:09Z
2023-12-11T11:27:42Z,42.805,6.029,13.3054,4.60152,2470.8,2023-12-11T13:30:12Z
2023-12-11T11:30:47Z,42.805,6.029,13.3055,4.60146,2470.824,2023-12-11T13:33:17Z
2023-12-11T11:33:50Z,42.805,6.029,13.3047,4.60152,2470.763,2023-12-11T13:36:20Z
2023-12-11T11:36:53Z,42.805,6.029,13.3055,4.60154,2470.787,2023-12-11T13:39:23Z
2023-12-11T11:39:56Z,42.805,6.029,13.3048,4.60156,2470.74,2023-12-11T13:42:26Z
2023-12-11T11:42:59Z,42.805,6.029,13.3046,4.60137,2470.787,2023-12-11T13:45:29Z
2023-12-11T11:46:03Z,42.805,6.029,13.3054,4.60145,2470.787,2023-12-11T13:48:32Z
2023-12-11T11:49:06Z,42.805,6.029,13.3052,4.60175,2470.787,2023-12-11T13:51:35Z
2023-12-11T11:52:09Z,42.805,6.029,13.3061,4.60182,2470.8,2023-12-11T13:54:38Z
2023-12-11T11:55:12Z,42.805,6.029,13.3044,4.60142,2470.787,2023-12-11T13:57:41Z
2023-12-11T11:58:15Z,42.805,6.029,13.3045,4.60129,2470.763,2023-12-11T14:00:44Z
2023-12-11T12:01:18Z,42.805,6.029,13.3051,4.60138,2470.763,2023-12-11T14:03:47Z
2023-12-11T12:04:21Z,42.805,6.029,13.3051,4.60157,2470.777,2023-12-11T14:06:51Z
2023-12-11T12:07:24Z,42.805,6.029,13.3050,4.60167,2470.763,2023-12-11T14:09:54Z
2023-12-11T12:10:27Z,42.805,6.029,13.3054,4.60156,2470.763,2023-12-11T14:12:57Z
2023-12-11T12:13:30Z,42.805,6.029,13.3051,4.60154,2470.777,2023-12-11T14:16:00Z
2023-12-11T12:16:33Z,42.805,6.029,13.3050,4.60171,2470.777,2023-12-11T14:19:03Z
2023-12-11T12:19:37Z,42.805,6.029,13.3049,4.60163,2470.787,2023-12-11T14:22:06Z
2023-12-11T12:22:40Z,42.805,6.029,13.3051,4.60187,2470.8,2023-12-11T14:25:09Z
2023-12-11T12:25:43Z,42.805,6.029,13.3044,4.60158,2470.787,2023-12-11T14:28:12Z
2023-12-11T12:28:46Z,42.805,6.029,13.3054,4.60185,2470.777,2023-12-11T14:31:15Z
2023-12-11T12:31:49Z,42.805,6.029,13.3052,4.60184,2470.824,2023-12-11T14:34:18Z
2023-12-11T12:34:52Z,42.805,6.029,13.3052,4.60144,2470.74,2023-12-11T14:37:21Z
2023-12-11T12:37:55Z,42.805,6.029,13.3058,4.60151,2470.763,2023-12-11T14:40:25Z
2023-12-11T12:40:58Z,42.805,6.029,13.3051,4.60142,2470.754,2023-12-11T14:43:28Z
2023-12-11T12:44:01Z,42.805,6.029,13.3058,4.60157,2470.777,2023-12-11T14:46:31Z
2023-12-11T12:47:04Z,42.805,6.029,13.3052,4.60146,2470.763,2023-12-11T14:49:34Z
2023-12-11T12:50:07Z,42.805,6.029,13.3056,4.60160,2470.777,2023-12-11T14:52:37Z
2023-12-11T12:53:11Z,42.805,6.029,13.3061,4.60148,2470.787,2023-12-11T14:55:40Z
2023-12-11T12:56:14Z,42.805,6.029,13.3064,4.60163,2470.763,2023-12-11T14:58:43Z
2023-12-11T12:59:17Z,42.805,6.029,13.3072,4.60166,2470.8,2023-12-11T15:01:46Z
2023-12-11T13:02:20Z,42.805,6.029,13.3061,4.60166,2470.787,2023-12-11T15:04:49Z
2023-12-11T13:05:23Z,42.805,6.029,13.3065,4.60167,2470.75,2023-12-11T15:07:52Z
2023-12-11T13:08:26Z,42.805,6.029,13.3052,4.60150,2470.763,2023-12-11T15:10:55Z
2023-12-11T13:11:29Z,42.805,6.029,13.3058,4.60166,2470.777,2023-12-11T15:13:59Z
2023-12-11T13:14:32Z,42.805,6.029,13.3051,4.60146,2470.787,2023-12-11T15:17:02Z
2023-12-11T13:17:35Z,42.805,6.029,13.3055,4.60147,2470.787,2023-12-11T15:20:05Z
2023-12-11T13:20:38Z,42.805,6.029,13.3061,4.60176,2470.763,2023-12-11T15:23:08Z
2023-12-11T13:23:41Z,42.805,6.029,13.3049,4.60162,2470.777,2023-12-11T15:26:11Z
2023-12-11T13:26:45Z,42.805,6.029,13.3067,4.60159,2470.74,2023-12-11T15:29:14Z
2023-12-11T13:29:48Z,42.805,6.029,13.3048,4.60139,2470.8,2023-12-11T15:32:17Z
2023-12-11T13:32:51Z,42.805,6.029,13.3061,4.60162,2470.8,2023-12-11T15:35:20Z
2023-12-11T13:35:54Z,42.805,6.029,13.3055,4.60160,2470.787,2023-12-11T15:38:23Z
2023-12-11T13:38:57Z,42.805,6.029,13.3066,4.60150,2470.777,2023-12-11T15:41:26Z
2023-12-11T13:42:00Z,42.805,6.029,13.3051,4.60143,2470.787,2023-12-11T15:44:29Z
2023-12-11T13:45:03Z,42.805,6.029,13.3045,4.60135,2470.754,2023-12-11T15:47:33Z
2023-12-11T13:48:06Z,42.805,6.029,13.3051,4.60137,2470.787,2023-12-11T15:50:36Z
2023-12-11T13:51:09Z,42.805,6.029,13.3071,4.60163,2470.787,2023-12-11T15:53:39Z
2023-12-11T13:54:12Z,42.805,6.029,13.3053,4.60166,2470.787,2023-12-11T15:56:42Z
2023-12-11T13:57:15Z,42.805,6.029,13.3067,4.60162,2470.824,2023-12-11T15:59:45Z
2023-12-11T14:00:19Z,42.805,6.029,13.3070,4.60162,2470.777,2023-12-11T16:02:48Z
2023-12-11T14:03:22Z,42.805,6.029,13.3060,4.60169,2470.763,2023-12-11T16:05:51Z
2023-12-11T14:06:25Z,42.805,6.029,13.3055,4.60180,2470.763,2023-12-11T16:08:54Z
2023-12-11T14:09:28Z,42.805,6.029,13.3079,4.60157,2470.777,2023-12-11T16:11:57Z
2023-12-11T14:12:31Z,42.805,6.029,13.3069,4.60177,2470.777,2023-12-11T16:15:00Z
2023-12-11T14:15:34Z,42.805,6.029,13.3072,4.60178,2470.787,2023-12-11T16:18:03Z
2023-12-11T14:18:37Z,42.805,6.029,13.3048,4.60167,2470.787,2023-12-11T16:21:06Z
2023-12-11T14:21:40Z,42.805,6.029,13.3058,4.60170,2470.787,2023-12-11T16:24:10Z
2023-12-11T14:24:43Z,42.805,6.029,13.3058,4.60165,2470.754,2023-12-11T16:27:13Z
2023-12-11T14:27:46Z,42.805,6.029,13.3070,4.60167,2470.777,2023-12-11T16:30:16Z
2023-12-11T14:30:49Z,42.805,6.029,13.3056,4.60157,2470.8,2023-12-11T16:33:19Z
2023-12-11T14:33:52Z,42.805,6.029,13.3060,4.60175,2470.787,2023-12-11T16:36:22Z
2023-12-11T14:36:56Z,42.805,6.029,13.3049,4.60157,2470.787,2023-12-11T16:39:25Z
2023-12-11T14:39:59Z,42.805,6.029,13.3051,4.60167,2470.777,2023-12-11T16:42:28Z
2023-12-11T14:43:02Z,42.805,6.029,13.3057,4.60170,2470.787,2023-12-11T16:45:31Z
2023-12-11T14:46:05Z,42.805,6.029,13.3052,4.60152,2470.787,2023-12-11T16:48:34Z
2023-12-11T14:49:08Z,42.805,6.029,13.3060,4.60169,2470.787,2023-12-11T16:51:37Z
2023-12-11T14:52:11Z,42.805,6.029,13.3067,4.60166,2470.787,2023-12-11T16:54:40Z
2023-12-11T14:55:14Z,42.805,6.029,13.3064,4.60180,2470.787,2023-12-11T16:57:44Z
2023-12-11T14:58:17Z,42.805,6.029,13.3062,4.60157,2470.787,2023-12-11T17:00:47Z
2023-12-11T15:01:20Z,42.805,6.029,13.3070,4.60170,2470.8,2023-12-11T17:03:50Z